Time,TemperatureF,DewpointF,PressureIn,WindDirection,WindDirectionDegrees,WindSpeedMPH,WindSpeedGustMPH,Humidity,HourlyPrecipIn,Conditions,Clouds,dailyrainin,SoftwareType,DateUTC
2013-02-25 00:01:00,34.0,20.0,29.90,WNW,301,8.0,17.0,57,0.00,,,0.01,,2013-02-25 05:01:00,
2013-02-25 00:11:00,34.0,20.0,29.90,WNW,301,8.0,17.0,57,0.00,,,0.01,,2013-02-25 05:11:00,
2013-02-25 00:22:00,34.0,20.0,29.90,NW,313,7.0,15.0,57,0.00,,,0.01,,2013-02-25 05:22:00,
2013-02-25 00:32:00,34.0,21.0,29.91,WNW,286,6.0,11.0,58,0.00,,,0.01,,2013-02-25 05:32:00,
2013-02-25 00:42:00,34.0,21.0,29.91,WNW,286,6.0,11.0,58,0.00,,,0.01,,2013-02-25 05:42:00,
2013-02-25 00:52:00,33.0,20.0,29.91,NW,306,6.0,12.0,58,0.00,,,0.01,,2013-02-25 05:52:00,
2013-02-25 01:02:00,33.0,20.0,29.93,WNW,283,6.0,12.0,58,0.00,,,0.01,,2013-02-25 06:02:00,
2013-02-25 01:11:00,33.0,20.0,29.93,WNW,283,6.0,12.0,58,0.00,,,0.01,,2013-02-25 06:11:00,
2013-02-25 01:21:00,33.0,20.0,29.93,WNW,297,5.0,11.0,59,0.00,,,0.01,,2013-02-25 06:21:00,
2013-02-25 01:32:00,33.0,21.0,29.93,WNW,294,4.0,7.0,60,0.00,,,0.01,,2013-02-25 06:32:00,
2013-02-25 01:42:00,33.0,21.0,29.93,WNW,294,4.0,7.0,60,0.00,,,0.01,,2013-02-25 06:42:00,
2013-02-25 01:51:00,33.0,21.0,29.93,NW,313,4.0,9.0,60,0.00,,,0.01,,2013-02-25 06:51:00,
2013-02-25 02:01:00,32.0,20.0,29.93,NW,304,4.0,10.0,61,0.00,,,0.01,,2013-02-25 07:01:00,
2013-02-25 02:11:00,32.0,20.0,29.93,NW,308,4.0,7.0,62,0.00,,,0.01,,2013-02-25 07:11:00,
2013-02-25 02:21:00,32.0,20.0,29.93,NW,308,4.0,7.0,62,0.00,,,0.01,,2013-02-25 07:21:00,
2013-02-25 02:32:00,32.0,20.0,29.94,WNW,303,4.0,10.0,62,0.00,,,0.01,,2013-02-25 07:32:00,
2013-02-25 02:42:00,32.0,20.0,29.94,WNW,303,4.0,10.0,62,0.00,,,0.01,,2013-02-25 07:42:00,
2013-02-25 02:51:00,32.0,20.0,29.94,WNW,293,5.0,9.0,62,0.00,,,0.01,,2013-02-25 07:51:00,
2013-02-25 03:01:00,32.0,21.0,29.94,WNW,303,4.0,7.0,63,0.00,,,0.01,,2013-02-25 08:01:00,
2013-02-25 03:11:00,32.0,21.0,29.94,WNW,303,4.0,7.0,63,0.00,,,0.01,,2013-02-25 08:11:00,
2013-02-25 03:21:00,31.0,20.0,29.94,NW,314,4.0,10.0,64,0.00,,,0.01,,2013-02-25 08:21:00,
2013-02-25 03:32:00,31.0,20.0,29.94,West,272,3.0,8.0,64,0.00,,,0.01,,2013-02-25 08:32:00,
2013-02-25 03:42:00,31.0,20.0,29.94,West,272,3.0,8.0,64,0.00,,,0.01,,2013-02-25 08:42:00,
2013-02-25 03:52:00,31.0,20.0,29.94,WNW,301,3.0,8.0,64,0.00,,,0.01,,2013-02-25 08:52:00,
2013-02-25 04:02:00,31.0,21.0,29.96,West,275,4.0,8.0,65,0.00,,,0.01,,2013-02-25 09:02:00,
2013-02-25 04:12:00,31.0,21.0,29.96,West,275,4.0,8.0,65,0.00,,,0.01,,2013-02-25 09:12:00,
2013-02-25 04:21:00,31.0,21.0,29.96,WNW,301,5.0,8.0,65,0.00,,,0.01,,2013-02-25 09:21:00,
2013-02-25 04:32:00,31.0,21.0,29.96,WNW,302,4.0,8.0,65,0.00,,,0.00,,2013-02-25 09:32:00,
2013-02-25 04:42:00,31.0,21.0,29.96,WNW,302,4.0,8.0,65,0.00,,,0.00,,2013-02-25 09:42:00,
2013-02-25 04:52:00,31.0,21.0,29.96,NW,313,5.0,7.0,66,0.00,,,0.00,,2013-02-25 09:52:00,
2013-02-25 05:01:00,31.0,21.0,29.97,WNW,291,3.0,6.0,67,0.00,,,0.00,,2013-02-25 10:01:00,
2013-02-25 05:11:00,31.0,21.0,29.97,WNW,286,4.0,7.0,67,0.00,,,0.00,,2013-02-25 10:11:00,
2013-02-25 05:21:00,31.0,21.0,29.97,WNW,286,4.0,7.0,67,0.00,,,0.00,,2013-02-25 10:21:00,
2013-02-25 05:32:00,30.0,21.0,29.98,West,279,3.0,6.0,69,0.00,,,0.00,,2013-02-25 10:32:00,
2013-02-25 05:42:00,30.0,21.0,29.98,West,279,3.0,6.0,69,0.00,,,0.00,,2013-02-25 10:42:00,
2013-02-25 05:52:00,30.0,21.0,29.98,WNW,300,4.0,7.0,69,0.00,,,0.00,,2013-02-25 10:52:00,
2013-02-25 06:01:00,30.0,21.0,29.99,WNW,290,4.0,8.0,69,0.00,,,0.00,,2013-02-25 11:01:00,
2013-02-25 06:11:00,30.0,21.0,29.99,WNW,290,4.0,8.0,69,0.00,,,0.00,,2013-02-25 11:11:00,
2013-02-25 06:22:00,30.0,21.0,29.99,WNW,288,3.0,6.0,69,0.00,,,0.00,,2013-02-25 11:22:00,
2013-02-25 06:32:00,30.0,21.0,29.99,WNW,283,1.0,5.0,69,0.00,,,0.00,,2013-02-25 11:32:00,
2013-02-25 06:42:00,30.0,21.0,29.99,WNW,283,1.0,5.0,69,0.00,,,0.00,,2013-02-25 11:42:00,
2013-02-25 06:52:00,30.0,21.0,29.99,NW,304,4.0,8.0,69,0.00,,,0.00,,2013-02-25 11:52:00,
2013-02-25 07:02:00,30.0,21.0,30.00,WNW,300,3.0,7.0,69,0.00,,,0.00,,2013-02-25 12:02:00,
2013-02-25 07:11:00,30.0,21.0,30.00,WNW,300,3.0,7.0,69,0.00,,,0.00,,2013-02-25 12:11:00,
2013-02-25 07:22:00,31.0,22.0,30.00,WNW,291,4.0,6.0,70,0.00,,,0.00,,2013-02-25 12:22:00,
2013-02-25 07:32:00,31.0,22.0,30.02,WNW,286,3.0,6.0,70,0.00,,,0.00,,2013-02-25 12:32:00,
2013-02-25 07:42:00,31.0,22.0,30.02,WNW,286,3.0,6.0,70,0.00,,,0.00,,2013-02-25 12:42:00,
2013-02-25 07:54:00,31.0,22.0,30.02,WNW,286,4.0,7.0,70,0.00,,,0.00,,2013-02-25 12:54:00,
2013-02-25 08:02:00,33.0,24.0,30.03,WNW,288,4.0,8.0,69,0.00,,,0.00,,2013-02-25 13:02:00,
2013-02-25 08:12:00,33.0,24.0,30.03,WNW,288,4.0,8.0,69,0.00,,,0.00,,2013-02-25 13:12:00,
2013-02-25 08:23:00,33.0,24.0,30.03,WNW,292,5.0,8.0,68,0.00,,,0.00,,2013-02-25 13:23:00,
2013-02-25 08:32:00,34.0,24.0,30.04,WNW,288,4.0,11.0,66,0.00,,,0.00,,2013-02-25 13:32:00,
2013-02-25 08:42:00,34.0,24.0,30.04,WNW,288,4.0,11.0,66,0.00,,,0.00,,2013-02-25 13:42:00,
2013-02-25 08:52:00,35.0,24.0,30.04,WNW,298,5.0,11.0,65,0.00,,,0.00,,2013-02-25 13:52:00,
2013-02-25 09:03:00,36.0,25.0,30.04,WNW,298,2.0,9.0,64,0.00,,,0.00,,2013-02-25 14:03:00,
2013-02-25 09:17:00,36.0,25.0,30.04,WNW,298,2.0,9.0,64,0.00,,,0.00,,2013-02-25 14:17:00,
2013-02-25 09:32:00,38.0,25.0,30.05,NW,304,5.0,12.0,60,0.00,,,0.00,,2013-02-25 14:32:00,
2013-02-25 09:42:00,38.0,25.0,30.05,NW,304,5.0,12.0,60,0.00,,,0.00,,2013-02-25 14:42:00,
2013-02-25 09:52:00,39.0,26.0,30.05,North,351,5.0,11.0,60,0.00,,,0.00,,2013-02-25 14:52:00,
2013-02-25 10:03:00,40.0,26.0,30.05,NNW,329,5.0,11.0,58,0.00,,,0.00,,2013-02-25 15:03:00,
2013-02-25 10:11:00,40.0,26.0,30.05,NNW,329,5.0,11.0,58,0.00,,,0.00,,2013-02-25 15:11:00,
2013-02-25 10:22:00,40.0,26.0,30.05,North,360,7.0,12.0,57,0.00,,,0.00,,2013-02-25 15:22:00,
2013-02-25 10:32:00,41.0,27.0,30.05,NNW,331,3.0,8.0,56,0.00,,,0.00,,2013-02-25 15:32:00,
2013-02-25 10:42:00,41.0,27.0,30.05,NNW,331,3.0,8.0,56,0.00,,,0.00,,2013-02-25 15:42:00,
2013-02-25 10:51:00,41.0,26.0,30.05,North,351,4.0,9.0,54,0.00,,,0.00,,2013-02-25 15:51:00,
2013-02-25 11:02:00,42.0,27.0,30.06,NW,306,3.0,9.0,54,0.00,,,0.00,,2013-02-25 16:02:00,
2013-02-25 11:12:00,42.0,27.0,30.06,NW,306,3.0,9.0,54,0.00,,,0.00,,2013-02-25 16:12:00,
2013-02-25 11:22:00,43.0,27.0,30.06,NNE,19,4.0,9.0,53,0.00,,,0.00,,2013-02-25 16:22:00,
2013-02-25 11:32:00,43.0,27.0,30.06,NE,43,2.0,9.0,52,0.00,,,0.00,,2013-02-25 16:32:00,
2013-02-25 11:42:00,43.0,27.0,30.06,NE,43,2.0,9.0,52,0.00,,,0.00,,2013-02-25 16:42:00,
2013-02-25 11:51:00,44.0,28.0,30.06,NNE,18,3.0,9.0,52,0.00,,,0.00,,2013-02-25 16:51:00,
2013-02-25 12:02:00,44.0,26.0,30.05,North,351,4.0,10.0,49,0.00,,,0.00,,2013-02-25 17:02:00,
2013-02-25 12:11:00,44.0,26.0,30.05,North,351,4.0,10.0,49,0.00,,,0.00,,2013-02-25 17:11:00,
2013-02-25 12:21:00,44.0,27.0,30.05,NNE,28,4.0,11.0,50,0.00,,,0.00,,2013-02-25 17:21:00,
2013-02-25 12:32:00,44.0,25.0,30.06,NNE,15,6.0,10.0,47,0.00,,,0.00,,2013-02-25 17:32:00,
2013-02-25 12:42:00,44.0,25.0,30.06,NNE,15,6.0,10.0,47,0.00,,,0.00,,2013-02-25 17:42:00,
2013-02-25 12:52:00,44.0,25.0,30.06,North,360,1.0,10.0,47,0.00,,,0.00,,2013-02-25 17:52:00,
2013-02-25 13:02:00,44.0,25.0,30.06,WNW,297,6.0,10.0,47,0.00,,,0.00,,2013-02-25 18:02:00,
2013-02-25 13:12:00,44.0,25.0,30.06,WNW,297,6.0,10.0,47,0.00,,,0.00,,2013-02-25 18:12:00,
2013-02-25 13:21:00,44.0,26.0,30.06,North,351,2.0,7.0,49,0.00,,,0.00,,2013-02-25 18:21:00,
2013-02-25 13:33:00,44.0,26.0,30.06,NNW,332,4.0,9.0,48,0.00,,,0.00,,2013-02-25 18:33:00,
2013-02-25 13:42:00,44.0,26.0,30.06,NNW,332,4.0,9.0,48,0.00,,,0.00,,2013-02-25 18:42:00,
2013-02-25 13:51:00,44.0,26.0,30.06,NW,326,1.0,8.0,48,0.00,,,0.00,,2013-02-25 18:51:00,
2013-02-25 14:01:00,44.0,26.0,30.05,NW,315,2.0,8.0,48,0.00,,,0.00,,2013-02-25 19:01:00,
2013-02-25 14:11:00,44.0,26.0,30.05,NW,315,2.0,8.0,48,0.00,,,0.00,,2013-02-25 19:11:00,
2013-02-25 14:21:00,44.0,25.0,30.05,North,5,3.0,7.0,47,0.00,,,0.00,,2013-02-25 19:21:00,
2013-02-25 14:32:00,45.0,26.0,30.05,NNW,327,0.0,1.0,47,0.00,,,0.00,,2013-02-25 19:32:00,
2013-02-25 14:42:00,45.0,26.0,30.05,NNW,327,0.0,1.0,47,0.00,,,0.00,,2013-02-25 19:42:00,
2013-02-25 14:52:00,45.0,25.0,30.05,NNW,335,4.0,7.0,45,0.00,,,0.00,,2013-02-25 19:52:00,
2013-02-25 15:01:00,44.0,26.0,30.06,North,349,1.0,7.0,49,0.00,,,0.00,,2013-02-25 20:01:00,
2013-02-25 15:11:00,44.0,26.0,30.06,North,349,1.0,7.0,49,0.00,,,0.00,,2013-02-25 20:11:00,
2013-02-25 15:21:00,44.0,26.0,30.06,NNE,22,0.0,8.0,48,0.00,,,0.00,,2013-02-25 20:21:00,
2013-02-25 15:32:00,45.0,25.0,30.07,NW,317,5.0,8.0,45,0.00,,,0.00,,2013-02-25 20:32:00,
2013-02-25 15:42:00,45.0,25.0,30.07,NW,317,5.0,8.0,45,0.00,,,0.00,,2013-02-25 20:42:00,
2013-02-25 15:52:00,44.0,24.0,30.07,NW,307,4.0,9.0,45,0.00,,,0.00,,2013-02-25 20:52:00,
2013-02-25 16:02:00,44.0,23.0,30.07,NW,309,2.0,8.0,44,0.00,,,0.00,,2013-02-25 21:02:00,
2013-02-25 16:11:00,44.0,23.0,30.07,NW,309,2.0,8.0,44,0.00,,,0.00,,2013-02-25 21:11:00,
2013-02-25 16:21:00,44.0,23.0,30.07,West,277,3.0,8.0,44,0.00,,,0.00,,2013-02-25 21:21:00,
2013-02-25 16:32:00,44.0,24.0,30.08,NW,311,4.0,8.0,45,0.00,,,0.00,,2013-02-25 21:32:00,
2013-02-25 16:42:00,44.0,24.0,30.08,NW,311,4.0,8.0,45,0.00,,,0.00,,2013-02-25 21:42:00,
2013-02-25 16:51:00,44.0,25.0,30.08,NW,311,0.0,6.0,46,0.00,,,0.00,,2013-02-25 21:51:00,
2013-02-25 17:02:00,44.0,24.0,30.07,NW,312,0.0,5.0,45,0.00,,,0.00,,2013-02-25 22:02:00,
2013-02-25 17:11:00,44.0,24.0,30.07,NW,312,0.0,5.0,45,0.00,,,0.00,,2013-02-25 22:11:00,
2013-02-25 17:21:00,44.0,24.0,30.07,West,277,3.0,8.0,45,0.00,,,0.00,,2013-02-25 22:21:00,
2013-02-25 17:32:00,44.0,25.0,30.08,WNW,287,2.0,6.0,47,0.00,,,0.00,,2013-02-25 22:32:00,
2013-02-25 17:42:00,44.0,25.0,30.08,WNW,287,2.0,6.0,47,0.00,,,0.00,,2013-02-25 22:42:00,
2013-02-25 17:52:00,44.0,25.0,30.08,WNW,287,2.0,4.0,47,0.00,,,0.00,,2013-02-25 22:52:00,
2013-02-25 18:01:00,43.0,25.0,30.09,WNW,289,1.0,5.0,48,0.00,,,0.00,,2013-02-25 23:01:00,
2013-02-25 18:11:00,43.0,25.0,30.09,WNW,289,1.0,5.0,48,0.00,,,0.00,,2013-02-25 23:11:00,
2013-02-25 18:22:00,43.0,25.0,30.09,WNW,289,0.0,2.0,49,0.00,,,0.00,,2013-02-25 23:22:00,
2013-02-25 18:32:00,43.0,26.0,30.10,WNW,289,0.0,0.0,50,0.00,,,0.00,,2013-02-25 23:32:00,
2013-02-25 18:42:00,43.0,26.0,30.10,WNW,289,0.0,0.0,50,0.00,,,0.00,,2013-02-25 23:42:00,
2013-02-25 18:52:00,43.0,26.0,30.10,WNW,289,0.0,3.0,51,0.00,,,0.00,,2013-02-25 23:52:00,
2013-02-25 19:02:00,43.0,26.0,30.11,WNW,289,2.0,4.0,50,0.00,,,0.00,,2013-02-26 00:02:00,
2013-02-25 19:12:00,43.0,26.0,30.11,WNW,289,2.0,4.0,50,0.00,,,0.00,,2013-02-26 00:12:00,
2013-02-25 19:22:00,43.0,26.0,30.11,WNW,289,1.0,4.0,50,0.00,,,0.00,,2013-02-26 00:22:00,
2013-02-25 19:32:00,43.0,26.0,30.13,WNW,289,1.0,4.0,50,0.00,,,0.00,,2013-02-26 00:32:00,
2013-02-25 19:42:00,43.0,26.0,30.13,WNW,289,1.0,4.0,50,0.00,,,0.00,,2013-02-26 00:42:00,
2013-02-25 19:51:00,43.0,26.0,30.13,WNW,289,0.0,1.0,51,0.00,,,0.00,,2013-02-26 00:51:00,
2013-02-25 20:02:00,43.0,27.0,30.13,WNW,289,0.0,4.0,52,0.00,,,0.00,,2013-02-26 01:02:00,
2013-02-25 20:11:00,43.0,27.0,30.13,WNW,289,0.0,4.0,52,0.00,,,0.00,,2013-02-26 01:11:00,
2013-02-25 20:21:00,42.0,26.0,30.13,WNW,289,0.0,2.0,52,0.00,,,0.00,,2013-02-26 01:21:00,
2013-02-25 20:32:00,42.0,26.0,30.14,WNW,289,0.0,0.0,53,0.00,,,0.00,,2013-02-26 01:32:00,
2013-02-25 20:42:00,42.0,26.0,30.14,WNW,289,0.0,0.0,53,0.00,,,0.00,,2013-02-26 01:42:00,
2013-02-25 20:52:00,42.0,26.0,30.14,WNW,289,0.0,1.0,53,0.00,,,0.00,,2013-02-26 01:52:00,
2013-02-25 21:01:00,42.0,27.0,30.14,WNW,289,0.0,0.0,55,0.00,,,0.00,,2013-02-26 02:01:00,
2013-02-25 21:11:00,42.0,27.0,30.14,WNW,289,0.0,0.0,55,0.00,,,0.00,,2013-02-26 02:11:00,
2013-02-25 21:21:00,41.0,27.0,30.14,WNW,289,0.0,0.0,57,0.00,,,0.00,,2013-02-26 02:21:00,
2013-02-25 21:32:00,40.0,27.0,30.14,WNW,289,0.0,0.0,59,0.00,,,0.00,,2013-02-26 02:32:00,
2013-02-25 21:42:00,40.0,27.0,30.14,WNW,289,0.0,0.0,59,0.00,,,0.00,,2013-02-26 02:42:00,
2013-02-25 21:52:00,40.0,28.0,30.14,WNW,289,0.0,1.0,61,0.00,,,0.00,,2013-02-26 02:52:00,
2013-02-25 22:02:00,39.0,28.0,30.14,WNW,289,0.0,0.0,65,0.00,,,0.00,,2013-02-26 03:02:00,
2013-02-25 22:11:00,39.0,28.0,30.14,WNW,289,0.0,0.0,65,0.00,,,0.00,,2013-02-26 03:11:00,
2013-02-25 22:22:00,38.0,27.0,30.14,WNW,289,0.0,0.0,65,0.00,,,0.00,,2013-02-26 03:22:00,
2013-02-25 22:32:00,38.0,28.0,30.14,WNW,289,0.0,0.0,67,0.00,,,0.00,,2013-02-26 03:32:00,
2013-02-25 22:42:00,38.0,28.0,30.14,WNW,289,0.0,0.0,67,0.00,,,0.00,,2013-02-26 03:42:00,
2013-02-25 22:52:00,38.0,28.0,30.14,WNW,289,0.0,0.0,67,0.00,,,0.00,,2013-02-26 03:52:00,
2013-02-25 23:02:00,37.0,27.0,30.14,WNW,289,0.0,0.0,68,0.00,,,0.00,,2013-02-26 04:02:00,
2013-02-25 23:11:00,37.0,27.0,30.14,WNW,289,0.0,0.0,68,0.00,,,0.00,,2013-02-26 04:11:00,
2013-02-25 23:22:00,37.0,28.0,30.14,WNW,289,0.0,0.0,70,0.00,,,0.00,,2013-02-26 04:22:00,
2013-02-25 23:32:00,36.0,28.0,30.14,WNW,289,0.0,0.0,72,0.00,,,0.00,,2013-02-26 04:32:00,
2013-02-25 23:42:00,36.0,28.0,30.14,WNW,289,0.0,0.0,72,0.00,,,0.00,,2013-02-26 04:42:00,
2013-02-25 23:52:00,35.0,27.0,30.14,WNW,289,0.0,0.0,73,0.00,,,0.00,,2013-02-26 04:52:00,